Time,TemperatureF,DewpointF,PressureIn,WindDirection,WindDirectionDegrees,WindSpeedMPH,WindSpeedGustMPH,Humidity,HourlyPrecipIn,Conditions,Clouds,dailyrainin,SoftwareType,DateUTC
2013-01-14 00:02:00,9.6,4.7,30.29,SW,229,1.8,1.8,80,0.00,,---,0.00,VWS V14.01,2013-01-14 06:02:00,
2013-01-14 00:07:00,9.6,4.7,30.29,West,260,0.0,1.8,80,0.00,,---,0.00,VWS V14.01,2013-01-14 06:07:00,
2013-01-14 00:12:00,9.5,4.6,30.29,WSW,243,1.8,1.8,80,0.00,,---,0.00,VWS V14.01,2013-01-14 06:12:00,
2013-01-14 00:17:00,9.5,4.6,30.29,West,280,0.0,1.8,80,0.00,,---,0.00,VWS V14.01,2013-01-14 06:17:00,
2013-01-14 00:22:00,9.6,4.7,30.29,WSW,242,1.8,3.6,80,0.00,,---,0.00,VWS V14.01,2013-01-14 06:22:00,
2013-01-14 00:27:00,9.6,4.7,30.29,NW,308,1.8,1.8,80,0.00,,---,0.00,VWS V14.01,2013-01-14 06:27:00,
2013-01-14 00:32:00,9.6,4.7,30.29,NW,309,0.0,1.8,80,0.00,,---,0.00,VWS V14.01,2013-01-14 06:32:00,
2013-01-14 00:37:00,9.4,4.5,30.29,NW,309,1.8,1.8,80,0.00,,---,0.00,VWS V14.01,2013-01-14 06:37:00,
2013-01-14 00:42:00,9.3,4.4,30.29,NW,311,0.0,1.8,80,0.00,,---,0.00,VWS V14.01,2013-01-14 06:42:00,
2013-01-14 00:47:00,9.3,4.6,30.30,West,264,1.8,1.8,81,0.00,,---,0.00,VWS V14.01,2013-01-14 06:47:00,
2013-01-14 00:52:00,9.6,4.9,30.29,NW,312,3.6,3.6,81,0.00,,---,0.00,VWS V14.01,2013-01-14 06:52:00,
2013-01-14 00:57:00,9.9,5.2,30.30,NW,305,3.6,3.6,81,0.00,,---,0.00,VWS V14.01,2013-01-14 06:57:00,
2013-01-14 01:02:00,10.1,5.2,30.30,WNW,291,3.6,5.4,80,0.00,,---,0.00,VWS V14.01,2013-01-14 07:02:00,
2013-01-14 01:07:00,10.1,5.2,30.30,WNW,291,1.8,3.6,80,0.00,,---,0.00,VWS V14.01,2013-01-14 07:07:00,
2013-01-14 01:12:00,10.0,4.8,30.29,NW,305,3.6,3.6,79,0.00,,---,0.00,VWS V14.01,2013-01-14 07:12:00,
2013-01-14 01:17:00,9.9,4.7,30.30,WNW,299,3.6,3.6,79,0.00,,---,0.00,VWS V14.01,2013-01-14 07:17:00,
2013-01-14 01:22:00,9.9,4.7,30.30,WNW,294,1.8,3.6,79,0.00,,---,0.00,VWS V14.01,2013-01-14 07:22:00,
2013-01-14 01:27:00,9.8,4.6,30.30,NW,312,0.0,3.6,79,0.00,,---,0.00,VWS V14.01,2013-01-14 07:27:00,
2013-01-14 01:32:00,9.7,4.5,30.30,NW,319,1.8,1.8,79,0.00,,---,0.00,VWS V14.01,2013-01-14 07:32:00,
2013-01-14 01:37:00,9.6,4.4,30.31,NW,305,0.0,1.8,79,0.00,,---,0.00,VWS V14.01,2013-01-14 07:37:00,
2013-01-14 01:42:00,9.6,4.4,30.31,WNW,302,1.8,1.8,79,0.00,,---,0.00,VWS V14.01,2013-01-14 07:42:00,
2013-01-14 01:47:00,9.6,4.4,30.31,WNW,302,1.8,1.8,79,0.00,,---,0.00,VWS V14.01,2013-01-14 07:47:00,
2013-01-14 01:52:00,9.7,4.5,30.31,WNW,299,0.0,1.8,79,0.00,,---,0.00,VWS V14.01,2013-01-14 07:52:00,
2013-01-14 01:57:00,9.7,4.5,30.32,WNW,297,1.8,1.8,79,0.00,,---,0.00,VWS V14.01,2013-01-14 07:57:00,
2013-01-14 02:02:00,9.7,4.5,30.32,WNW,297,0.0,1.8,79,0.00,,---,0.00,VWS V14.01,2013-01-14 08:02:00,
2013-01-14 02:07:00,9.7,4.5,30.33,WNW,297,0.0,0.0,79,0.00,,---,0.00,VWS V14.01,2013-01-14 08:07:00,
2013-01-14 02:12:00,9.7,4.5,30.33,WSW,251,0.0,1.8,79,0.00,,---,0.00,VWS V14.01,2013-01-14 08:12:00,
2013-01-14 02:17:00,9.7,4.5,30.33,SW,233,0.0,0.0,79,0.00,,---,0.00,VWS V14.01,2013-01-14 08:17:00,
2013-01-14 02:22:00,9.6,4.4,30.34,SW,233,0.0,0.0,79,0.00,,---,0.00,VWS V14.01,2013-01-14 08:22:00,
2013-01-14 02:27:00,9.4,4.2,30.34,WSW,248,0.0,0.0,79,0.00,,---,0.00,VWS V14.01,2013-01-14 08:27:00,
2013-01-14 02:32:00,9.3,4.1,30.35,WSW,253,0.0,0.0,79,0.00,,---,0.00,VWS V14.01,2013-01-14 08:32:00,
2013-01-14 02:37:00,9.2,4.0,30.35,WSW,253,0.0,0.0,79,0.00,,---,0.00,VWS V14.01,2013-01-14 08:37:00,
2013-01-14 02:42:00,9.0,4.1,30.36,WSW,253,0.0,0.0,80,0.00,,---,0.00,VWS V14.01,2013-01-14 08:42:00,
2013-01-14 02:47:00,8.8,3.6,30.36,WSW,252,0.0,0.0,79,0.00,,---,0.00,VWS V14.01,2013-01-14 08:47:00,
2013-01-14 02:52:00,8.6,3.7,30.36,WSW,253,0.0,0.0,80,0.00,,---,0.00,VWS V14.01,2013-01-14 08:52:00,
2013-01-14 02:57:00,8.5,3.6,30.36,WSW,253,0.0,0.0,80,0.00,,---,0.00,VWS V14.01,2013-01-14 08:57:00,
2013-01-14 03:02:00,8.5,3.6,30.37,WSW,251,0.0,0.0,80,0.00,,---,0.00,VWS V14.01,2013-01-14 09:02:00,
2013-01-14 03:07:00,8.4,3.5,30.37,WSW,251,0.0,0.0,80,0.00,,---,0.00,VWS V14.01,2013-01-14 09:07:00,
2013-01-14 03:12:00,8.2,3.3,30.37,WSW,252,0.0,0.0,80,0.00,,---,0.00,VWS V14.01,2013-01-14 09:12:00,
2013-01-14 03:17:00,8.1,3.5,30.37,WSW,252,0.0,0.0,81,0.00,,---,0.00,VWS V14.01,2013-01-14 09:17:00,
2013-01-14 03:23:00,8.0,3.4,30.38,WSW,243,0.0,0.0,81,0.00,,---,0.00,VWS V14.01,2013-01-14 09:23:00,
2013-01-14 03:28:00,8.0,3.4,30.38,WSW,245,0.0,0.0,81,0.00,,---,0.00,VWS V14.01,2013-01-14 09:28:00,
2013-01-14 03:33:00,8.0,3.6,30.39,WSW,245,0.0,0.0,82,0.00,,---,0.00,VWS V14.01,2013-01-14 09:33:00,
2013-01-14 03:38:00,8.2,3.8,30.39,WSW,256,1.8,1.8,82,0.00,,---,0.00,VWS V14.01,2013-01-14 09:38:00,
2013-01-14 03:43:00,8.4,3.8,30.39,WSW,250,1.8,3.6,81,0.00,,---,0.00,VWS V14.01,2013-01-14 09:43:00,
2013-01-14 03:48:00,8.6,4.0,30.40,West,277,1.8,3.6,81,0.00,,---,0.00,VWS V14.01,2013-01-14 09:48:00,
2013-01-14 03:53:00,8.7,3.8,30.40,WSW,239,0.0,1.8,80,0.00,,---,0.00,VWS V14.01,2013-01-14 09:53:00,
2013-01-14 03:58:00,8.8,3.9,30.40,WSW,250,1.8,3.6,80,0.00,,---,0.00,VWS V14.01,2013-01-14 09:58:00,
2013-01-14 04:03:00,8.8,3.9,30.40,West,273,0.0,3.6,80,0.00,,---,0.00,VWS V14.01,2013-01-14 10:03:00,
2013-01-14 04:08:00,8.6,3.5,30.40,SW,234,0.0,1.8,79,0.00,,---,0.00,VWS V14.01,2013-01-14 10:08:00,
2013-01-14 04:13:00,8.4,3.2,30.40,WSW,248,0.0,1.8,79,0.00,,---,0.00,VWS V14.01,2013-01-14 10:13:00,
2013-01-14 04:18:00,8.3,3.4,30.40,SW,224,0.0,0.0,80,0.00,,---,0.00,VWS V14.01,2013-01-14 10:18:00,
2013-01-14 04:23:00,8.4,3.5,30.40,WSW,240,0.0,0.0,80,0.00,,---,0.00,VWS V14.01,2013-01-14 10:23:00,
2013-01-14 04:28:00,8.5,3.9,30.40,WSW,250,0.0,1.8,81,0.00,,---,0.00,VWS V14.01,2013-01-14 10:28:00,
2013-01-14 04:33:00,8.7,3.8,30.40,West,277,0.0,1.8,80,0.00,,---,0.00,VWS V14.01,2013-01-14 10:33:00,
2013-01-14 04:38:00,8.7,3.8,30.40,West,267,1.8,1.8,80,0.00,,---,0.00,VWS V14.01,2013-01-14 10:38:00,
2013-01-14 04:43:00,8.7,3.8,30.40,WSW,245,0.0,1.8,80,0.00,,---,0.00,VWS V14.01,2013-01-14 10:43:00,
2013-01-14 04:48:00,8.7,3.8,30.41,WSW,245,0.0,1.8,80,0.00,,---,0.00,VWS V14.01,2013-01-14 10:48:00,
2013-01-14 04:53:00,8.7,3.8,30.41,West,273,0.0,5.4,80,0.00,,---,0.00,VWS V14.01,2013-01-14 10:53:00,
2013-01-14 04:58:00,8.6,3.7,30.41,WSW,250,1.8,3.6,80,0.00,,---,0.00,VWS V14.01,2013-01-14 10:58:00,
2013-01-14 05:03:00,8.6,3.7,30.41,WSW,245,0.0,3.6,80,0.00,,---,0.00,VWS V14.01,2013-01-14 11:03:00,
2013-01-14 05:08:00,8.6,3.7,30.41,West,274,0.0,3.6,80,0.00,,---,0.00,VWS V14.01,2013-01-14 11:08:00,
2013-01-14 05:13:00,8.7,3.8,30.42,WSW,257,3.6,3.6,80,0.00,,---,0.00,VWS V14.01,2013-01-14 11:13:00,
2013-01-14 05:18:00,8.8,3.9,30.42,WSW,251,0.0,3.6,80,0.00,,---,0.00,VWS V14.01,2013-01-14 11:18:00,
2013-01-14 05:23:00,8.8,3.9,30.42,WNW,295,0.0,1.8,80,0.00,,---,0.00,VWS V14.01,2013-01-14 11:23:00,
2013-01-14 05:28:00,8.6,3.7,30.42,West,260,0.0,0.0,80,0.00,,---,0.00,VWS V14.01,2013-01-14 11:28:00,
2013-01-14 05:33:00,8.5,3.6,30.43,West,277,0.0,0.0,80,0.00,,---,0.00,VWS V14.01,2013-01-14 11:33:00,
2013-01-14 05:38:00,8.4,3.5,30.43,West,266,0.0,0.0,80,0.00,,---,0.00,VWS V14.01,2013-01-14 11:38:00,
2013-01-14 05:43:00,8.3,3.4,30.43,West,266,0.0,0.0,80,0.00,,---,0.00,VWS V14.01,2013-01-14 11:43:00,
2013-01-14 05:48:00,8.1,3.2,30.43,West,266,0.0,0.0,80,0.00,,---,0.00,VWS V14.01,2013-01-14 11:48:00,
2013-01-14 05:53:00,8.0,3.1,30.43,West,266,0.0,0.0,80,0.00,,---,0.00,VWS V14.01,2013-01-14 11:53:00,
2013-01-14 05:58:00,7.9,3.3,30.43,WSW,257,0.0,3.6,81,0.00,,---,0.00,VWS V14.01,2013-01-14 11:58:00,
2013-01-14 06:03:00,7.9,3.3,30.43,West,266,0.0,1.8,81,0.00,,---,0.00,VWS V14.01,2013-01-14 12:03:00,
2013-01-14 06:08:00,7.8,3.2,30.44,West,266,0.0,1.8,81,0.00,,---,0.00,VWS V14.01,2013-01-14 12:08:00,
2013-01-14 06:13:00,7.8,3.2,30.44,West,265,0.0,0.0,81,0.00,,---,0.00,VWS V14.01,2013-01-14 12:13:00,
2013-01-14 06:18:00,7.7,3.1,30.44,West,266,0.0,0.0,81,0.00,,---,0.00,VWS V14.01,2013-01-14 12:18:00,
2013-01-14 06:23:00,7.5,2.9,30.44,West,266,0.0,0.0,81,0.00,,---,0.00,VWS V14.01,2013-01-14 12:23:00,
2013-01-14 06:28:00,7.3,2.7,30.45,West,266,0.0,0.0,81,0.00,,---,0.00,VWS V14.01,2013-01-14 12:28:00,
2013-01-14 06:33:00,7.3,2.7,30.45,West,265,0.0,0.0,81,0.00,,---,0.00,VWS V14.01,2013-01-14 12:33:00,
2013-01-14 06:38:00,7.5,3.1,30.45,West,266,0.0,1.8,82,0.00,,---,0.00,VWS V14.01,2013-01-14 12:38:00,
2013-01-14 06:43:00,7.5,2.9,30.45,West,266,0.0,1.8,81,0.00,,---,0.00,VWS V14.01,2013-01-14 12:43:00,
2013-01-14 06:48:00,7.3,2.7,30.45,West,266,0.0,0.0,81,0.00,,---,0.00,VWS V14.01,2013-01-14 12:48:00,
2013-01-14 06:53:00,7.3,2.7,30.45,WNW,302,0.0,1.8,81,0.00,,---,0.00,VWS V14.01,2013-01-14 12:53:00,
2013-01-14 06:58:00,7.3,2.7,30.45,WNW,302,0.0,1.8,81,0.00,,---,0.00,VWS V14.01,2013-01-14 12:58:00,
2013-01-14 07:03:00,7.3,2.7,30.45,WNW,302,0.0,1.8,81,0.00,,---,0.00,VWS V14.01,2013-01-14 13:03:00,
2013-01-14 07:08:00,7.3,2.7,30.45,WNW,302,1.8,1.8,81,0.00,,---,0.00,VWS V14.01,2013-01-14 13:08:00,
2013-01-14 07:13:00,7.3,2.7,30.45,WNW,302,0.0,0.0,81,0.00,,---,0.00,VWS V14.01,2013-01-14 13:13:00,
2013-01-14 07:18:00,7.3,2.7,30.45,WNW,302,0.0,0.0,81,0.00,,---,0.00,VWS V14.01,2013-01-14 13:18:00,
2013-01-14 07:23:00,7.2,2.6,30.45,WNW,302,0.0,0.0,81,0.00,,---,0.00,VWS V14.01,2013-01-14 13:23:00,
2013-01-14 07:28:00,7.2,2.6,30.45,WNW,302,0.0,0.0,81,0.00,,---,0.00,VWS V14.01,2013-01-14 13:28:00,
2013-01-14 07:33:00,7.2,2.6,30.45,WNW,302,0.0,0.0,81,0.00,,---,0.00,VWS V14.01,2013-01-14 13:33:00,
2013-01-14 07:38:00,7.3,2.7,30.45,WNW,302,0.0,0.0,81,0.00,,---,0.00,VWS V14.01,2013-01-14 13:38:00,
2013-01-14 07:43:00,7.3,2.7,30.45,NW,319,1.8,3.6,81,0.00,,---,0.00,VWS V14.01,2013-01-14 13:43:00,
2013-01-14 07:48:00,7.4,2.8,30.45,NW,319,0.0,1.8,81,0.00,,---,0.00,VWS V14.01,2013-01-14 13:48:00,
2013-01-14 07:53:00,7.5,2.9,30.46,NW,319,0.0,1.8,81,0.00,,---,0.00,VWS V14.01,2013-01-14 13:53:00,
2013-01-14 07:58:00,7.5,2.9,30.46,NW,319,0.0,1.8,81,0.00,,---,0.00,VWS V14.01,2013-01-14 13:58:00,
2013-01-14 08:03:00,7.7,3.1,30.45,NW,318,1.8,3.6,81,0.00,,---,0.00,VWS V14.01,2013-01-14 14:03:00,
2013-01-14 08:08:00,8.0,3.1,30.45,NW,316,1.8,3.6,80,0.00,,---,0.00,VWS V14.01,2013-01-14 14:08:00,
2013-01-14 08:13:00,8.4,3.5,30.45,NW,305,1.8,1.8,80,0.00,,---,0.00,VWS V14.01,2013-01-14 14:13:00,
2013-01-14 08:18:00,8.7,3.8,30.45,WNW,293,3.6,3.6,80,0.00,,---,0.00,VWS V14.01,2013-01-14 14:18:00,
2013-01-14 08:23:00,8.9,3.7,30.45,NW,315,1.8,3.6,79,0.00,,---,0.00,VWS V14.01,2013-01-14 14:23:00,
2013-01-14 08:28:00,9.3,4.1,30.45,NW,309,3.6,3.6,79,0.00,,---,0.00,VWS V14.01,2013-01-14 14:28:00,
2013-01-14 08:33:00,9.7,4.3,30.45,NW,315,1.8,5.4,78,0.00,,---,0.00,VWS V14.01,2013-01-14 14:33:00,
2013-01-14 08:38:00,10.1,4.4,30.45,WNW,301,1.8,3.6,77,0.00,,---,0.00,VWS V14.01,2013-01-14 14:38:00,
2013-01-14 08:43:00,10.6,4.9,30.45,NW,323,3.6,3.6,77,0.00,,---,0.00,VWS V14.01,2013-01-14 14:43:00,
2013-01-14 08:48:00,10.8,4.5,30.45,NW,316,1.8,5.4,75,0.00,,---,0.00,VWS V14.01,2013-01-14 14:48:00,
2013-01-14 08:53:00,11.1,4.8,30.45,NW,316,3.6,5.4,75,0.00,,---,0.00,VWS V14.01,2013-01-14 14:53:00,
2013-01-14 08:58:00,11.3,5.0,30.45,NW,305,1.8,3.6,75,0.00,,---,0.00,VWS V14.01,2013-01-14 14:58:00,
2013-01-14 09:03:00,11.5,5.2,30.45,NW,309,1.8,3.6,75,0.00,,---,0.00,VWS V14.01,2013-01-14 15:03:00,
2013-01-14 09:08:00,11.8,5.2,30.45,NNW,329,3.6,5.4,74,0.00,,---,0.00,VWS V14.01,2013-01-14 15:08:00,
2013-01-14 09:13:00,12.2,5.6,30.45,North,355,1.8,3.6,74,0.00,,---,0.00,VWS V14.01,2013-01-14 15:13:00,
2013-01-14 09:18:00,12.4,5.6,30.45,NW,314,5.4,7.2,73,0.00,,---,0.00,VWS V14.01,2013-01-14 15:18:00,
2013-01-14 09:23:00,12.6,5.7,30.45,NW,325,1.8,5.4,73,0.00,,---,0.00,VWS V14.01,2013-01-14 15:23:00,
2013-01-14 09:28:00,12.7,5.6,30.44,NW,312,3.6,5.4,73,0.00,,---,0.00,VWS V14.01,2013-01-14 15:28:00,
2013-01-14 09:33:00,12.8,5.7,30.44,WNW,300,7.2,7.2,73,0.00,,---,0.00,VWS V14.01,2013-01-14 15:33:00,
2013-01-14 09:38:00,12.9,5.5,30.44,NW,304,3.6,5.4,72,0.00,,---,0.00,VWS V14.01,2013-01-14 15:38:00,
2013-01-14 09:43:00,13.2,6.0,30.44,NW,321,0.0,5.4,73,0.00,,---,0.00,VWS V14.01,2013-01-14 15:43:00,
2013-01-14 09:48:00,13.3,5.6,30.44,West,280,1.8,7.2,71,0.00,,---,0.00,VWS V14.01,2013-01-14 15:48:00,
2013-01-14 09:53:00,13.5,5.8,30.44,WNW,295,3.6,3.6,71,0.00,,---,0.00,VWS V14.01,2013-01-14 15:53:00,
2013-01-14 09:58:00,13.8,6.1,30.44,WSW,240,0.0,5.4,71,0.00,,---,0.00,VWS V14.01,2013-01-14 15:58:00,
2013-01-14 10:03:00,13.9,5.9,30.45,NW,323,3.6,7.2,70,0.00,,---,0.00,VWS V14.01,2013-01-14 16:03:00,
2013-01-14 10:08:00,13.9,5.9,30.45,NW,309,3.6,7.2,70,0.00,,---,0.00,VWS V14.01,2013-01-14 16:08:00,
2013-01-14 10:13:00,14.2,6.2,30.45,WNW,300,3.6,7.2,70,0.00,,---,0.00,VWS V14.01,2013-01-14 16:13:00,
2013-01-14 10:18:00,14.4,6.3,30.46,WNW,283,1.8,3.6,70,0.00,,---,0.00,VWS V14.01,2013-01-14 16:18:00,
2013-01-14 10:23:00,14.9,6.8,30.47,NNW,338,1.8,5.4,70,0.00,,---,0.00,VWS V14.01,2013-01-14 16:23:00,
2013-01-14 10:28:00,14.8,6.4,30.47,WNW,299,0.0,7.2,69,0.00,,---,0.00,VWS V14.01,2013-01-14 16:28:00,
2013-01-14 10:33:00,15.0,6.6,30.47,NNW,330,0.0,3.6,69,0.00,,---,0.00,VWS V14.01,2013-01-14 16:33:00,
2013-01-14 10:38:00,15.3,6.6,30.47,WNW,299,3.6,7.2,68,0.00,,---,0.00,VWS V14.01,2013-01-14 16:38:00,
2013-01-14 10:43:00,15.4,7.0,30.47,NW,311,3.6,5.4,69,0.00,,---,0.00,VWS V14.01,2013-01-14 16:43:00,
2013-01-14 10:48:00,15.8,7.1,30.47,WSW,241,3.6,7.2,68,0.00,,---,0.00,VWS V14.01,2013-01-14 16:48:00,
2013-01-14 10:53:00,16.2,7.8,30.47,WNW,284,0.0,5.4,69,0.00,,---,0.00,VWS V14.01,2013-01-14 16:53:00,
2013-01-14 10:58:00,16.3,7.6,30.47,WSW,252,3.6,5.4,68,0.00,,---,0.00,VWS V14.01,2013-01-14 16:58:00,
2013-01-14 11:03:00,16.5,8.4,30.46,West,269,0.0,3.6,70,0.00,,---,0.00,VWS V14.01,2013-01-14 17:03:00,
2013-01-14 11:08:00,16.7,8.3,30.46,NW,312,3.6,3.6,69,0.00,,---,0.00,VWS V14.01,2013-01-14 17:08:00,
2013-01-14 11:13:00,16.9,8.4,30.46,NW,323,3.6,5.4,69,0.00,,---,0.00,VWS V14.01,2013-01-14 17:13:00,
2013-01-14 11:18:00,17.0,8.2,30.46,WNW,300,3.6,5.4,68,0.00,,---,0.00,VWS V14.01,2013-01-14 17:18:00,
2013-01-14 11:23:00,16.9,8.1,30.46,NW,322,3.6,7.2,68,0.00,,---,0.00,VWS V14.01,2013-01-14 17:23:00,
2013-01-14 11:28:00,16.8,8.1,30.46,NNW,333,3.6,7.2,68,0.00,,---,0.00,VWS V14.01,2013-01-14 17:28:00,
2013-01-14 11:33:00,17.0,7.9,30.45,WNW,287,3.6,5.4,67,0.00,,---,0.00,VWS V14.01,2013-01-14 17:33:00,
2013-01-14 11:38:00,16.9,7.5,30.45,WNW,291,1.8,5.4,66,0.00,,---,0.00,VWS V14.01,2013-01-14 17:38:00,
2013-01-14 11:43:00,16.9,7.5,30.45,West,262,1.8,7.2,66,0.00,,---,0.00,VWS V14.01,2013-01-14 17:43:00,
2013-01-14 11:48:00,17.2,7.5,30.45,NW,317,3.6,5.4,65,0.00,,---,0.00,VWS V14.01,2013-01-14 17:48:00,
2013-01-14 11:53:00,17.3,7.6,30.44,WNW,300,1.8,5.4,65,0.00,,---,0.00,VWS V14.01,2013-01-14 17:53:00,
2013-01-14 11:58:00,17.8,8.4,30.44,West,264,3.6,3.6,66,0.00,,---,0.00,VWS V14.01,2013-01-14 17:58:00,
2013-01-14 12:03:00,18.2,8.5,30.43,NW,321,3.6,7.2,65,0.00,,---,0.00,VWS V14.01,2013-01-14 18:03:00,
2013-01-14 12:08:00,18.1,8.1,30.43,NNW,330,3.6,9.0,64,0.00,,---,0.00,VWS V14.01,2013-01-14 18:08:00,
2013-01-14 12:13:00,18.0,8.3,30.43,WNW,282,1.8,9.0,65,0.00,,---,0.00,VWS V14.01,2013-01-14 18:13:00,
2013-01-14 12:18:00,18.5,8.8,30.43,NW,304,1.8,9.0,65,0.00,,---,0.00,VWS V14.01,2013-01-14 18:18:00,
2013-01-14 12:23:00,18.7,8.3,30.43,NW,314,3.6,10.8,63,0.00,,---,0.00,VWS V14.01,2013-01-14 18:23:00,
2013-01-14 12:28:00,18.9,8.8,30.43,NW,315,3.6,5.4,64,0.00,,---,0.00,VWS V14.01,2013-01-14 18:28:00,
2013-01-14 12:33:00,19.2,9.1,30.43,NW,308,3.6,5.4,64,0.00,,---,0.00,VWS V14.01,2013-01-14 18:33:00,
2013-01-14 12:38:00,19.2,8.4,30.43,NW,322,5.4,7.2,62,0.00,,---,0.00,VWS V14.01,2013-01-14 18:38:00,
2013-01-14 12:43:00,19.6,8.8,30.43,SW,225,1.8,7.2,62,0.00,,---,0.00,VWS V14.01,2013-01-14 18:43:00,
2013-01-14 12:48:00,20.3,9.1,30.43,WNW,302,3.6,5.4,61,0.00,,---,0.00,VWS V14.01,2013-01-14 18:48:00,
2013-01-14 12:53:00,20.7,9.5,30.43,WNW,302,0.0,7.2,61,0.00,,---,0.00,VWS V14.01,2013-01-14 18:53:00,
2013-01-14 12:58:00,20.9,9.4,30.43,West,276,1.8,5.4,60,0.00,,---,0.00,VWS V14.01,2013-01-14 18:58:00,
2013-01-14 13:03:00,21.2,9.3,30.42,SW,229,1.8,5.4,60,0.00,,---,0.00,VWS V14.01,2013-01-14 19:03:00,
2013-01-14 13:08:00,21.6,9.7,30.42,WSW,249,0.0,5.4,60,0.00,,---,0.00,VWS V14.01,2013-01-14 19:08:00,
2013-01-14 13:13:00,22.0,10.1,30.42,SSW,210,1.8,5.4,60,0.00,,---,0.00,VWS V14.01,2013-01-14 19:13:00,
2013-01-14 13:18:00,22.1,9.5,30.42,WNW,302,3.6,9.0,58,0.00,,---,0.00,VWS V14.01,2013-01-14 19:18:00,
2013-01-14 13:23:00,22.1,9.1,30.42,WNW,293,1.8,7.2,57,0.00,,---,0.00,VWS V14.01,2013-01-14 19:23:00,
2013-01-14 13:28:00,22.3,9.6,30.42,NW,307,3.6,7.2,58,0.00,,---,0.00,VWS V14.01,2013-01-14 19:28:00,
2013-01-14 13:33:00,22.3,10.0,30.42,NW,309,1.8,5.4,59,0.00,,---,0.00,VWS V14.01,2013-01-14 19:33:00,
2013-01-14 13:38:00,22.5,9.5,30.42,NW,319,0.0,7.2,57,0.00,,---,0.00,VWS V14.01,2013-01-14 19:38:00,
2013-01-14 13:43:00,22.5,9.8,30.43,NNW,348,1.8,5.4,58,0.00,,---,0.00,VWS V14.01,2013-01-14 19:43:00,
2013-01-14 13:48:00,23.0,10.3,30.43,West,264,3.6,3.6,58,0.00,,---,0.00,VWS V14.01,2013-01-14 19:48:00,
2013-01-14 13:53:00,22.8,9.8,30.43,WNW,297,1.8,9.0,57,0.00,,---,0.00,VWS V14.01,2013-01-14 19:53:00,
2013-01-14 13:58:00,22.9,10.2,30.42,North,349,3.6,5.4,58,0.00,,---,0.00,VWS V14.01,2013-01-14 19:58:00,
2013-01-14 14:03:00,23.3,10.6,30.43,West,281,0.0,3.6,58,0.00,,---,0.00,VWS V14.01,2013-01-14 20:03:00,
2013-01-14 14:08:00,23.4,10.7,30.43,WNW,302,5.4,5.4,58,0.00,,---,0.00,VWS V14.01,2013-01-14 20:08:00,
2013-01-14 14:13:00,23.3,10.2,30.43,SW,221,1.8,1.8,57,0.00,,---,0.00,VWS V14.01,2013-01-14 20:13:00,
2013-01-14 14:18:00,23.5,10.8,30.43,WSW,243,0.0,5.4,58,0.00,,---,0.00,VWS V14.01,2013-01-14 20:18:00,
2013-01-14 14:23:00,23.8,11.1,30.43,SW,233,3.6,5.4,58,0.00,,---,0.00,VWS V14.01,2013-01-14 20:23:00,
2013-01-14 14:28:00,24.0,10.9,30.43,West,280,1.8,3.6,57,0.00,,---,0.00,VWS V14.01,2013-01-14 20:28:00,
2013-01-14 14:33:00,24.0,10.5,30.43,West,259,0.0,5.4,56,0.00,,---,0.00,VWS V14.01,2013-01-14 20:33:00,
2013-01-14 14:38:00,24.4,11.3,30.43,WSW,250,0.0,3.6,57,0.00,,---,0.00,VWS V14.01,2013-01-14 20:38:00,
2013-01-14 14:43:00,24.5,11.0,30.43,West,270,1.8,3.6,56,0.00,,---,0.00,VWS V14.01,2013-01-14 20:43:00,
2013-01-14 14:48:00,24.2,10.3,30.43,ENE,72,1.8,3.6,55,0.00,,---,0.00,VWS V14.01,2013-01-14 20:48:00,
2013-01-14 14:53:00,24.2,10.7,30.43,WNW,293,0.0,0.0,56,0.00,,---,0.00,VWS V14.01,2013-01-14 20:53:00,
2013-01-14 14:58:00,24.3,10.8,30.43,WSW,246,1.8,3.6,56,0.00,,---,0.00,VWS V14.01,2013-01-14 20:58:00,
2013-01-14 15:03:00,24.1,10.2,30.44,NNW,328,1.8,3.6,55,0.00,,---,0.00,VWS V14.01,2013-01-14 21:03:00,
2013-01-14 15:08:00,24.0,10.5,30.43,WNW,301,0.0,5.4,56,0.00,,---,0.00,VWS V14.01,2013-01-14 21:08:00,
2013-01-14 15:13:00,24.0,10.9,30.43,SW,230,0.0,0.0,57,0.00,,---,0.00,VWS V14.01,2013-01-14 21:13:00,
2013-01-14 15:18:00,23.9,10.8,30.43,WSW,242,0.0,0.0,57,0.00,,---,0.00,VWS V14.01,2013-01-14 21:18:00,
2013-01-14 15:23:00,23.6,10.5,30.44,WSW,250,1.8,3.6,57,0.00,,---,0.00,VWS V14.01,2013-01-14 21:23:00,
2013-01-14 15:28:00,23.6,10.9,30.44,West,264,1.8,3.6,58,0.00,,---,0.00,VWS V14.01,2013-01-14 21:28:00,
2013-01-14 15:33:00,23.5,10.4,30.44,SW,225,0.0,0.0,57,0.00,,---,0.00,VWS V14.01,2013-01-14 21:33:00,
2013-01-14 15:38:00,23.6,10.5,30.44,WSW,256,0.0,0.0,57,0.00,,---,0.00,VWS V14.01,2013-01-14 21:38:00,
2013-01-14 15:43:00,23.6,10.5,30.44,South,190,1.8,1.8,57,0.00,,---,0.00,VWS V14.01,2013-01-14 21:43:00,
2013-01-14 15:48:00,23.8,10.7,30.43,SSW,205,0.0,3.6,57,0.00,,---,0.00,VWS V14.01,2013-01-14 21:48:00,
2013-01-14 15:53:00,24.0,10.5,30.43,West,271,1.8,3.6,56,0.00,,---,0.00,VWS V14.01,2013-01-14 21:53:00,
2013-01-14 15:58:00,23.4,9.9,30.43,SSW,194,0.0,3.6,56,0.00,,---,0.00,VWS V14.01,2013-01-14 21:58:00,
2013-01-14 16:03:00,23.0,9.9,30.43,SW,219,1.8,3.6,57,0.00,,---,0.00,VWS V14.01,2013-01-14 22:03:00,
2013-01-14 16:08:00,22.8,10.1,30.43,SW,216,0.0,3.6,58,0.00,,---,0.00,VWS V14.01,2013-01-14 22:08:00,
2013-01-14 16:13:00,22.4,9.7,30.43,SW,214,0.0,1.8,58,0.00,,---,0.00,VWS V14.01,2013-01-14 22:13:00,
2013-01-14 16:18:00,22.2,9.6,30.43,SSW,205,0.0,3.6,58,0.00,,---,0.00,VWS V14.01,2013-01-14 22:18:00,
2013-01-14 16:23:00,22.0,9.7,30.43,WSW,240,0.0,1.8,59,0.00,,---,0.00,VWS V14.01,2013-01-14 22:23:00,
2013-01-14 16:28:00,21.8,9.5,30.43,SSW,195,1.8,3.6,59,0.00,,---,0.00,VWS V14.01,2013-01-14 22:28:00,
2013-01-14 16:33:00,21.7,9.1,30.43,SSW,201,0.0,0.0,58,0.00,,---,0.00,VWS V14.01,2013-01-14 22:33:00,
2013-01-14 16:38:00,21.5,9.6,30.43,SSW,207,0.0,0.0,60,0.00,,---,0.00,VWS V14.01,2013-01-14 22:38:00,
2013-01-14 16:43:00,21.4,9.9,30.43,SSW,210,0.0,0.0,60,0.00,,---,0.00,VWS V14.01,2013-01-14 22:43:00,
2013-01-14 16:48:00,21.1,9.9,30.43,SSW,210,0.0,0.0,61,0.00,,---,0.00,VWS V14.01,2013-01-14 22:48:00,
2013-01-14 16:53:00,21.0,9.8,30.43,SW,217,0.0,0.0,61,0.00,,---,0.00,VWS V14.01,2013-01-14 22:53:00,
2013-01-14 16:58:00,20.7,9.5,30.43,SSW,201,0.0,0.0,61,0.00,,---,0.00,VWS V14.01,2013-01-14 22:58:00,
2013-01-14 17:03:00,20.5,9.7,30.43,SSW,201,0.0,0.0,62,0.00,,---,0.00,VWS V14.01,2013-01-14 23:03:00,
2013-01-14 17:08:00,20.2,9.7,30.43,SSW,201,0.0,0.0,63,0.00,,---,0.00,VWS V14.01,2013-01-14 23:08:00,
2013-01-14 17:13:00,19.9,9.8,30.43,SSW,201,0.0,0.0,64,0.00,,---,0.00,VWS V14.01,2013-01-14 23:13:00,
2013-01-14 17:18:00,19.4,9.6,30.43,SSW,201,0.0,0.0,65,0.00,,---,0.00,VWS V14.01,2013-01-14 23:18:00,
2013-01-14 17:23:00,19.0,9.5,30.43,SSW,201,0.0,0.0,66,0.00,,---,0.00,VWS V14.01,2013-01-14 23:23:00,
2013-01-14 17:28:00,18.7,9.6,30.43,SSW,201,0.0,0.0,67,0.00,,---,0.00,VWS V14.01,2013-01-14 23:28:00,
2013-01-14 17:33:00,18.3,9.5,30.43,SSW,201,0.0,0.0,68,0.00,,---,0.00,VWS V14.01,2013-01-14 23:33:00,
2013-01-14 17:38:00,18.2,9.7,30.43,SSW,201,0.0,0.0,69,0.00,,---,0.00,VWS V14.01,2013-01-14 23:38:00,
2013-01-14 17:43:00,18.1,9.6,30.43,SSW,201,0.0,0.0,69,0.00,,---,0.00,VWS V14.01,2013-01-14 23:43:00,
2013-01-14 17:48:00,18.0,9.5,30.43,SSW,201,0.0,0.0,69,0.00,,---,0.00,VWS V14.01,2013-01-14 23:48:00,
2013-01-14 17:53:00,17.6,9.4,30.43,SSW,201,0.0,0.0,70,0.00,,---,0.00,VWS V14.01,2013-01-14 23:53:00,
2013-01-14 17:58:00,17.3,9.1,30.43,SSW,201,0.0,0.0,70,0.00,,---,0.00,VWS V14.01,2013-01-14 23:58:00,
2013-01-14 18:03:00,16.9,9.0,30.43,SSW,201,0.0,0.0,71,0.00,,---,0.00,VWS V14.01,2013-01-15 00:03:00,
2013-01-14 18:08:00,16.4,8.6,30.44,SSW,201,0.0,0.0,71,0.00,,---,0.00,VWS V14.01,2013-01-15 00:08:00,
2013-01-14 18:13:00,16.3,9.0,30.44,SSW,201,0.0,0.0,73,0.00,,---,0.00,VWS V14.01,2013-01-15 00:13:00,
2013-01-14 18:18:00,16.5,9.2,30.44,SSW,201,0.0,0.0,73,0.00,,---,0.00,VWS V14.01,2013-01-15 00:18:00,
2013-01-14 18:23:00,16.7,9.4,30.44,SSW,201,0.0,0.0,73,0.00,,---,0.00,VWS V14.01,2013-01-15 00:23:00,
2013-01-14 18:28:00,16.6,9.3,30.44,SSW,201,0.0,0.0,73,0.00,,---,0.00,VWS V14.01,2013-01-15 00:28:00,
2013-01-14 18:33:00,16.4,9.4,30.44,SSW,201,0.0,0.0,73,0.00,,---,0.00,VWS V14.01,2013-01-15 00:33:00,
2013-01-14 18:38:00,16.4,9.4,30.44,SSW,201,0.0,0.0,73,0.00,,---,0.00,VWS V14.01,2013-01-15 00:38:00,
2013-01-14 18:43:00,16.5,9.5,30.44,SSW,201,0.0,0.0,73,0.00,,---,0.00,VWS V14.01,2013-01-15 00:43:00,
2013-01-14 18:48:00,16.5,9.2,30.44,SSW,201,0.0,0.0,73,0.00,,---,0.00,VWS V14.01,2013-01-15 00:48:00,
2013-01-14 18:53:00,16.4,9.1,30.44,SSW,201,0.0,0.0,73,0.00,,---,0.00,VWS V14.01,2013-01-15 00:53:00,
2013-01-14 18:58:00,16.1,8.8,30.44,SSW,201,0.0,0.0,73,0.00,,---,0.00,VWS V14.01,2013-01-15 00:58:00,
2013-01-14 19:03:00,15.9,8.9,30.44,SSW,210,0.0,0.0,73,0.00,,---,0.00,VWS V14.01,2013-01-15 01:03:00,
2013-01-14 19:08:00,16.0,8.8,30.44,SSW,210,0.0,0.0,73,0.00,,---,0.00,VWS V14.01,2013-01-15 01:08:00,
2013-01-14 19:12:00,16.2,8.9,30.44,SSW,210,0.0,0.0,73,0.00,,---,0.00,VWS V14.01,2013-01-15 01:12:00,
2013-01-14 19:18:00,16.3,9.0,30.43,SSW,210,0.0,0.0,73,0.00,,---,0.00,VWS V14.01,2013-01-15 01:18:00,
2013-01-14 19:23:00,16.3,9.0,30.43,SSW,210,0.0,0.0,73,0.00,,---,0.00,VWS V14.01,2013-01-15 01:23:00,
2013-01-14 19:28:00,16.3,8.8,30.44,SSW,210,0.0,0.0,72,0.00,,---,0.00,VWS V14.01,2013-01-15 01:28:00,
2013-01-14 19:33:00,16.0,8.8,30.44,SSW,210,0.0,0.0,73,0.00,,---,0.00,VWS V14.01,2013-01-15 01:33:00,
2013-01-14 19:38:00,15.5,8.3,30.43,SSW,210,0.0,0.0,73,0.00,,---,0.00,VWS V14.01,2013-01-15 01:38:00,
2013-01-14 19:43:00,15.0,8.1,30.43,SSW,210,0.0,0.0,73,0.00,,---,0.00,VWS V14.01,2013-01-15 01:43:00,
2013-01-14 19:47:00,14.7,8.1,30.44,SW,221,0.0,0.0,74,0.00,,---,0.00,VWS V14.01,2013-01-15 01:47:00,
2013-01-14 19:52:00,15.0,8.6,30.43,SW,221,0.0,0.0,75,0.00,,---,0.00,VWS V14.01,2013-01-15 01:52:00,
2013-01-14 19:57:00,14.9,8.2,30.43,SW,221,0.0,0.0,74,0.00,,---,0.00,VWS V14.01,2013-01-15 01:57:00,
2013-01-14 20:02:00,14.7,8.3,30.43,SW,221,0.0,0.0,75,0.00,,---,0.00,VWS V14.01,2013-01-15 02:02:00,
2013-01-14 20:07:00,14.9,8.8,30.43,SW,221,0.0,0.0,76,0.00,,---,0.00,VWS V14.01,2013-01-15 02:07:00,
2013-01-14 20:12:00,15.0,8.9,30.43,SW,221,0.0,0.0,76,0.00,,---,0.00,VWS V14.01,2013-01-15 02:12:00,
2013-01-14 20:17:00,14.9,8.5,30.43,SW,221,0.0,0.0,75,0.00,,---,0.00,VWS V14.01,2013-01-15 02:17:00,
2013-01-14 20:22:00,14.9,8.8,30.43,SW,221,0.0,0.0,76,0.00,,---,0.00,VWS V14.01,2013-01-15 02:22:00,
2013-01-14 20:27:00,14.7,8.3,30.42,SW,221,0.0,0.0,75,0.00,,---,0.00,VWS V14.01,2013-01-15 02:27:00,
2013-01-14 20:32:00,14.4,8.3,30.43,SW,221,0.0,0.0,76,0.00,,---,0.00,VWS V14.01,2013-01-15 02:32:00,
2013-01-14 20:37:00,14.3,8.5,30.43,SW,221,0.0,0.0,77,0.00,,---,0.00,VWS V14.01,2013-01-15 02:37:00,
2013-01-14 20:42:00,14.4,8.6,30.42,SW,221,0.0,0.0,77,0.00,,---,0.00,VWS V14.01,2013-01-15 02:42:00,
2013-01-14 20:47:00,14.2,8.1,30.42,SW,221,0.0,0.0,76,0.00,,---,0.00,VWS V14.01,2013-01-15 02:47:00,
2013-01-14 20:52:00,14.1,8.3,30.43,SW,221,0.0,0.0,77,0.00,,---,0.00,VWS V14.01,2013-01-15 02:52:00,
2013-01-14 20:57:00,14.2,8.4,30.43,SW,221,0.0,0.0,77,0.00,,---,0.00,VWS V14.01,2013-01-15 02:57:00,
2013-01-14 21:02:00,14.4,8.6,30.43,SW,221,0.0,0.0,77,0.00,,---,0.00,VWS V14.01,2013-01-15 03:02:00,
2013-01-14 21:07:00,14.4,8.3,30.43,SW,221,0.0,0.0,76,0.00,,---,0.00,VWS V14.01,2013-01-15 03:07:00,
2013-01-14 21:12:00,14.1,8.0,30.42,SW,221,0.0,0.0,76,0.00,,---,0.00,VWS V14.01,2013-01-15 03:12:00,
2013-01-14 21:17:00,13.7,7.6,30.42,SW,221,0.0,0.0,76,0.00,,---,0.00,VWS V14.01,2013-01-15 03:17:00,
2013-01-14 21:22:00,13.2,7.1,30.42,SW,221,0.0,0.0,76,0.00,,---,0.00,VWS V14.01,2013-01-15 03:22:00,
2013-01-14 21:27:00,13.4,7.9,30.42,SW,221,0.0,0.0,78,0.00,,---,0.00,VWS V14.01,2013-01-15 03:27:00,
2013-01-14 21:32:00,13.4,7.9,30.41,SW,221,0.0,0.0,78,0.00,,---,0.00,VWS V14.01,2013-01-15 03:32:00,
2013-01-14 21:37:00,13.0,7.2,30.42,SW,221,0.0,0.0,77,0.00,,---,0.00,VWS V14.01,2013-01-15 03:37:00,
2013-01-14 21:42:00,12.7,7.2,30.42,SW,221,0.0,0.0,78,0.00,,---,0.00,VWS V14.01,2013-01-15 03:42:00,
2013-01-14 21:47:00,12.7,7.7,30.42,SW,221,0.0,0.0,80,0.00,,---,0.00,VWS V14.01,2013-01-15 03:47:00,
2013-01-14 21:52:00,13.1,8.1,30.42,SW,221,0.0,0.0,80,0.00,,---,0.00,VWS V14.01,2013-01-15 03:52:00,
2013-01-14 21:57:00,13.0,7.7,30.42,SW,221,0.0,0.0,79,0.00,,---,0.00,VWS V14.01,2013-01-15 03:57:00,
2013-01-14 22:02:00,13.0,7.7,30.42,SW,221,0.0,0.0,79,0.00,,---,0.00,VWS V14.01,2013-01-15 04:02:00,
2013-01-14 22:07:00,13.1,7.8,30.42,SW,221,0.0,0.0,79,0.00,,---,0.00,VWS V14.01,2013-01-15 04:07:00,
2013-01-14 22:12:00,13.0,7.7,30.42,SW,221,0.0,0.0,79,0.00,,---,0.00,VWS V14.01,2013-01-15 04:12:00,
2013-01-14 22:17:00,12.8,7.5,30.42,SW,221,0.0,0.0,79,0.00,,---,0.00,VWS V14.01,2013-01-15 04:17:00,
2013-01-14 22:22:00,12.6,7.3,30.42,SW,221,0.0,0.0,79,0.00,,---,0.00,VWS V14.01,2013-01-15 04:22:00,
2013-01-14 22:27:00,12.4,7.4,30.42,SW,221,0.0,0.0,80,0.00,,---,0.00,VWS V14.01,2013-01-15 04:27:00,
2013-01-14 22:32:00,12.0,6.8,30.42,SW,221,0.0,0.0,79,0.00,,---,0.00,VWS V14.01,2013-01-15 04:32:00,
2013-01-14 22:37:00,11.6,6.6,30.42,SW,221,0.0,0.0,80,0.00,,---,0.00,VWS V14.01,2013-01-15 04:37:00,
2013-01-14 22:42:00,11.3,6.3,30.42,SW,221,0.0,0.0,80,0.00,,---,0.00,VWS V14.01,2013-01-15 04:42:00,
2013-01-14 22:47:00,11.1,6.4,30.43,SW,221,0.0,0.0,81,0.00,,---,0.00,VWS V14.01,2013-01-15 04:47:00,
2013-01-14 22:52:00,11.4,7.2,30.43,SW,221,0.0,0.0,83,0.00,,---,0.00,VWS V14.01,2013-01-15 04:52:00,
2013-01-14 22:57:00,11.4,6.9,30.43,SW,221,0.0,0.0,82,0.00,,---,0.00,VWS V14.01,2013-01-15 04:57:00,
2013-01-14 23:00:00,11.2,6.8,30.43,SW,221,0.0,0.0,82,0.00,,---,0.00,VWS V14.01,2013-01-15 05:00:00,
2013-01-14 23:01:00,11.1,6.7,30.43,SW,221,0.0,0.0,82,0.00,,---,0.00,VWS V14.01,2013-01-15 05:01:00,
2013-01-14 23:03:00,10.9,6.4,30.43,SW,221,0.0,0.0,82,0.00,,---,0.00,VWS V14.01,2013-01-15 05:03:00,
2013-01-14 23:08:00,11.3,7.3,30.43,SW,221,0.0,0.0,84,0.00,,---,0.00,VWS V14.01,2013-01-15 05:08:00,
2013-01-14 23:13:00,11.8,7.8,30.43,SW,221,0.0,0.0,84,0.00,,---,0.00,VWS V14.01,2013-01-15 05:13:00,
2013-01-14 23:18:00,12.2,8.0,30.43,SW,221,0.0,0.0,83,0.00,,---,0.00,VWS V14.01,2013-01-15 05:18:00,
2013-01-14 23:23:00,12.5,8.0,30.43,SW,221,0.0,0.0,82,0.00,,---,0.00,VWS V14.01,2013-01-15 05:23:00,
2013-01-14 23:28:00,12.7,8.0,30.43,SW,221,0.0,0.0,81,0.00,,---,0.00,VWS V14.01,2013-01-15 05:28:00,
2013-01-14 23:33:00,12.5,7.8,30.43,SW,221,0.0,0.0,81,0.00,,---,0.00,VWS V14.01,2013-01-15 05:33:00,
2013-01-14 23:38:00,12.2,7.5,30.43,SW,221,0.0,0.0,81,0.00,,---,0.00,VWS V14.01,2013-01-15 05:38:00,
2013-01-14 23:43:00,11.9,7.2,30.43,SW,221,0.0,0.0,81,0.00,,---,0.00,VWS V14.01,2013-01-15 05:43:00,
2013-01-14 23:48:00,11.5,6.8,30.43,SW,221,0.0,0.0,81,0.00,,---,0.00,VWS V14.01,2013-01-15 05:48:00,
2013-01-14 23:53:00,11.1,6.4,30.42,SW,221,0.0,0.0,81,0.00,,---,0.00,VWS V14.01,2013-01-15 05:53:00,
2013-01-14 23:58:00,10.9,6.2,30.42,SW,221,0.0,0.0,81,0.00,,---,0.00,VWS V14.01,2013-01-15 05:58:00,